Regional Weather Roundup
Issued by NWS Newport/Morehead, NC

Home | Current Version | Previous Version | Text Only | Print | Product List | Glossary On
Versions: 1 2 3 4 5 6 7 8 9 10 11 12 13 14 15 16 17 18 19 20 21 22 23 24 25 26 27 28 29 30 31 32 33 34 35 36 37 38 39 40 41 42 43 44 45 46 47 48 49 50
000
ASUS42 KMHX 242122
RWRMHX
WEATHER ROUNDUP FOR EASTERN NORTH CAROLINA
NATIONAL WEATHER SERVICE NEWPORT/MOREHEAD CITY NC
400 PM EST MON NOV 24 2014

NOTE: "FAIR" INDICATES FEW OR NO CLOUDS BELOW 12,000 FEET
WITH NO SIGNIFICANT WEATHER AND/OR OBSTRUCTIONS TO VISIBILITY

NCZ015>017-031-032-045>047-102-103-242200-
NORTH COAST

CITY           SKY/WX    TMP DP  RH WIND       PRES   REMARKS
EDENTON        MOCLDY    67  65  96 S10       29.82F
ELIZABETH CITY CLOUDY    72  66  81 S9G20     29.84R
KITTY HAWK     CLOUDY    66  65  96 SW8       29.85R FOG
MANTEO         CLOUDY    63  63  98 S9        29.87R

$$

NCZ045>047-081-094-103-104-242200-
CENTRAL COAST

CITY           SKY/WX    TMP DP  RH WIND       PRES   REMARKS
FRISCO         CLOUDY    68  68 100 SW10      29.88S FOG
SWANQUARTER      N/A     63 N/A N/A S9        29.82S

$$

NCZ095-097-098-100-101-242200-
SOUTHERN COAST

CITY           SKY/WX    TMP DP  RH WIND       PRES   REMARKS
BEAUFORT       PTCLDY    69  68  96 SW15      29.87F FOG
CEDAR ISLAND     N/A     72 N/A N/A S10G21    29.91S
JACKSONVILLE   CLOUDY    71  68  90 S8        29.85S
PINEY ISLAND   PTCLDY    74  68  81 SW15G24   29.86S
WILMINGTON     CLOUDY    71  69  93 SW16G24   29.87R FOG


$$

NCZ011>013-027>030-043-044-078>080-089-090>093-098-242200-
COASTAL PLAIN

CITY           SKY/WX    TMP DP  RH WIND       PRES   REMARKS
AHOSKIE        CLOUDY    69  65  84 S9        29.80R
CLINTON        NOT AVBL
ELIZABETHTOWN  RAIN      66  65  94 S7        29.86R
GOLDSBORO      PTSUNNY   70  70  98 CALM      29.81R
GREENVILLE     MOCLDY    70  66  88 S12       29.85R
HAVELOCK       CLOUDY    72  69  90 SW18G28   29.87S
KENANSVILLE    CLOUDY    68  64  86 CALM      29.86R
KINSTON        MOCLDY    70  66  88 S9        29.85R
NEW BERN       CLOUDY    73  69  87 SW10      29.87R
RICHLANDS      CLOUDY    70  66  88 SW5       29.87R
ROCKY MOUNT    CLOUDY    71  65  81 S14       29.80R
WASHINGTON     CLOUDY    68  66  92 S7        29.84S
WHITEVILLE     HVY RAIN  66  66 100 S5        29.87R

$$

AMZ130-135-150-152-154-156-158-170-250-252-270-ANZ085-086-088-633-658-670-242200-
MARINE OBSERVATIONS

STATION/POSITION TIME  TEMP    WIND        PRES    WAVE   SWELL
                       AIR SEA DIR/SP/G            HT/PER HT/PER
                 (UTC) (F)     (DEG/KT/KT) (MB)    (FT/S) (FT/S)
CHESAPEAKE LIGHT 2100   63     190/ 30/ 31 1008.0
64 E VA BEACH    2100   67 62  200/ 16/ 19 1010.0    9/ 9   7/ 9
DUCK             2100   67 57  210/ 13/ 17 1010.0
2 E DUCK         2100      57                N/A     5/11   2/11
10 NE DUCK       2100      59                N/A     6/10   2/11
OREGON INLET     2100   60 56  200/ 11/ 13 1011.3
13E OREGON INLT  2100      62                N/A     6/10   2/11
HATTERAS CG      2100   69 62  200/  6/ 10 1012.3
DIAMOND BUOY     2100   75     190/ 16/ 17 1012.2    7/10   5/10
17 S OCRACOKE    NOT AVBL
CAPE LOOKOUT     2100   70     200/ 10/ 13 1011.7
BEAUFORT LAB     2100   68 57  210/  8/ 12 1010.6
30 SE NEW RIVER  2100   72 69  220/ 14/ 16 1011.9    8/ 9   7/ 9
5 SE WRIGHTSVLE  2100   60 60  220/  8/ 10 1011.5
225 S CAPE HAT   2012   75 74  190/ 16/ 19 1016.8    8/ 8   5/ 8
41 SE CHARLESTON 2100   75 74  210/ 19/ 23 1011.5    9/ 9   7/ 9

$$



USA.gov is the U.S. government's official web portal to all federal, state and local government web resources and services.